Weather History for KGUP - July, 2013

Change the Weather History Date:

Saturday, July 27, 2013

  Actual Average Record
Temperature  
Mean Temperature 72 °F -  
Max Temperature 84 °F 84 °F 95 °F (1979)
Min Temperature 59 °F 53 °F 43 °F (1973)
Cooling Degree Days 6    
Growing Degree Days 22 (Base 50)    
Moisture  
Dew Point 51 °F    
Average Humidity 50    
Maximum Humidity 78    
Minimum Humidity 28    
Precipitation  
Precipitation 0.00 in - - ()
Sea Level Pressure  
Sea Level Pressure 29.87 in    
Wind  
Wind Speed 7 mph (SW)    
Max Wind Speed 16 mph    
Max Gust Speed 24 mph    
Visibility 10 miles    
Events Thunderstorm    
Averages and records for this station are not official NWS values.
T = Trace of Precipitation, MM = Missing Value Source: NWS Daily Summary

Daily Weather History Graph

Daily Weather History Graph

Search for Another Location

Airport or City:

Trip Planner

Search our weather history database for the weather conditions in past years. The results will help you decide how hot, cold, wet, or windy it might be!

Date:

Astronomy

Jul. 27, 2013 Rise Set
Actual Time 6:19 AM MDT 8:22 PM MDT
Civil Twilight 5:51 AM MDT 8:51 PM MDT
Nautical Twilight 5:17 AM MDT 9:25 PM MDT
Astronomical Twilight 4:39 AM MDT 10:02 PM MDT
Moon 11:27 PM MDT (7/27) 11:49 AM MDT (7/27)
Length of Visible Light 14h 59m
Length of Day
14h 02m
Waning Gibbous, 70% of the Moon is Illuminated
Jul 27
Waning Gibbous
Jul 29
Last Quarter
Aug 6
New
Aug 14
First Quarter
Aug 20
Full

Hourly Weather History & Observations

Time (MDT) Temp. Dew Point Humidity Pressure Visibility Wind Dir Wind Speed Gust Speed Precip Events Conditions
12:53 AM 62.1 °F 53.1 °F 72% 29.83 in 10.0 mi SE 5.8 mph - N/A   Clear
1:53 AM 61.0 °F 53.1 °F 75% 29.84 in 10.0 mi NE 4.6 mph - N/A   Clear
2:53 AM 61.0 °F 52.0 °F 72% 29.89 in 10.0 mi Calm Calm - N/A   Mostly Cloudy
3:53 AM 59.0 °F 52.0 °F 78% 29.97 in 10.0 mi Calm Calm - N/A   Partly Cloudy
4:53 AM 61.0 °F 53.1 °F 75% 29.92 in 10.0 mi SE 5.8 mph - N/A   Mostly Cloudy
5:53 AM 61.0 °F 52.0 °F 72% 29.96 in 10.0 mi Variable 3.5 mph - N/A   Clear
6:53 AM 61.0 °F 53.1 °F 75% 29.94 in 10.0 mi SSE 5.8 mph - N/A   Mostly Cloudy
7:53 AM 62.1 °F 53.1 °F 72% 29.94 in 10.0 mi NW 8.1 mph - N/A   Overcast
8:53 AM 64.0 °F 54.0 °F 70% 29.94 in 10.0 mi WSW 6.9 mph - N/A   Partly Cloudy
9:53 AM 66.0 °F 53.1 °F 63% 29.91 in 10.0 mi Calm Calm - N/A   Partly Cloudy
10:53 AM 71.1 °F 54.0 °F 55% 29.87 in 10.0 mi Variable 5.8 mph - N/A   Clear
11:53 AM 75.9 °F 52.0 °F 43% 29.81 in 10.0 mi SSW 3.5 mph - N/A   Clear
12:53 PM 79.0 °F 51.1 °F 38% 29.78 in 10.0 mi South 9.2 mph - N/A   Clear
1:53 PM 80.1 °F 48.9 °F 34% 29.75 in 10.0 mi SSW 9.2 mph - N/A   Clear
2:31 PM 82.4 °F 48.2 °F 30% 30.23 in 10.0 mi SW 11.5 mph 17.3 mph N/A Thunderstorm Partly Cloudy
2:46 PM 82.4 °F 48.2 °F 30% 30.21 in 10.0 mi SW 8.1 mph 18.4 mph N/A   Partly Cloudy
2:53 PM 82.0 °F 48.9 °F 31% 29.70 in 10.0 mi Variable 3.5 mph - N/A   Partly Cloudy
3:53 PM 84.9 °F 48.0 °F 28% 29.68 in 10.0 mi WSW 16.1 mph 23.0 mph N/A   Partly Cloudy
4:53 PM 82.0 °F 50.0 °F 33% 29.65 in 10.0 mi SW 13.8 mph 24.2 mph N/A   Partly Cloudy
5:53 PM 82.0 °F 52.0 °F 35% 29.65 in 10.0 mi WSW 13.8 mph - N/A   Partly Cloudy
6:32 PM 80.6 °F 48.2 °F 32% 30.15 in 10.0 mi WSW 16.1 mph - N/A Thunderstorm Clear
6:50 PM 78.8 °F 48.2 °F 34% 30.15 in 10.0 mi SSW 16.1 mph 21.9 mph N/A   Clear
6:53 PM 79.0 °F 48.0 °F 34% 29.66 in 10.0 mi SW 15.0 mph - N/A   Clear
7:12 PM 78.8 °F 48.2 °F 34% 30.16 in 10.0 mi SW 16.1 mph - N/A Thunderstorm Clear
7:28 PM 78.8 °F 50.0 °F 36% 30.16 in 10.0 mi SW 10.4 mph - N/A   Clear
7:53 PM 77.0 °F 52.0 °F 42% 29.68 in 10.0 mi WSW 13.8 mph - N/A   Clear
8:53 PM 75.0 °F 54.0 °F 48% 29.69 in 10.0 mi West 12.7 mph - N/A   Overcast
9:53 PM 73.0 °F 53.1 °F 49% 29.71 in 10.0 mi West 11.5 mph - N/A   Mostly Cloudy
10:53 PM 72.0 °F 52.0 °F 49% 29.70 in 10.0 mi West 8.1 mph - N/A   Mostly Cloudy
11:53 PM 68.0 °F 54.0 °F 61% 29.69 in 10.0 mi SW 8.1 mph - N/A   Clear